CW9161 Weather Reports


time (UTC)temp
C
wind
direction
speed
KPH
gust
KPH
rain 1hr
cm
rain 24hr
cm
rain mn
cm
humidity
%
barometer
mb
20260505035506 16 74 0.0 3.2 0.00 0.00 0.00 68 1011.8
20260505035006 16 59 0.0 3.2 0.00 0.00 0.00 67 1011.7
20260505034516 17 51 0.0 3.2 0.00 0.00 0.00 66 1011.7
20260505034013 17 39 0.0 1.6 0.00 0.00 0.00 65 1011.6
20260505033509 17 24 0.0 1.6 0.00 0.00 0.00 66 1011.5
20260505033022 17 11 0.0 0.0 0.00 0.00 0.00 65 1011.4
20260505032510 17 11 0.0 0.0 0.00 0.00 0.00 64 1011.3
20260505032014 18 11 0.0 0.0 0.00 0.00 0.00 64 1011.2
20260505031506 18 11 0.0 0.0 0.00 0.00 0.00 63 1011.2
20260505031003 18 11 0.0 1.6 0.00 0.00 0.00 62 1011.2
20260505030503 18 11 0.0 1.6 0.00 0.00 0.00 62 1011.1
20260505030010 19 24 0.0 0.0 0.00 0.00 0.00 59 1011.1
20260505025509 19 24 0.0 0.0 0.00 0.00 0.00 59 1011.1
20260505025009 19 24 0.0 0.0 0.00 0.00 0.00 59 1011.1
20260505024515 20 24 0.0 0.0 0.00 0.00 0.00 59 1011.1
20260505024007 20 24 0.0 3.2 0.00 0.00 0.00 57 1011.1
20260505023508 20 24 0.0 3.2 0.00 0.00 0.00 56 1011.1
20260505023021 20 24 0.0 1.6 0.00 0.00 0.00 55 1011.2
20260505022506 20 332 0.0 0.0 0.00 0.00 0.00 54 1011.1
20260505022012 20 332 0.0 3.2 0.00 0.00 0.00 53 1011.0
20260505021521 20 332 0.0 3.2 0.00 0.00 0.00 52 1011.0
20260505021008 20 332 0.0 3.2 0.00 0.00 0.00 51 1010.9
20260505020502 21 332 0.0 3.2 0.00 0.00 0.00 50 1011.0
20260505020008 21 332 0.0 1.6 0.00 0.00 0.00 50 1011.0
20260505015503 21 335 0.0 3.2 0.00 0.00 0.00 50 1011.1
20260505015006 21 334 0.0 3.2 0.00 0.00 0.00 49 1011.1
20260505014522 21 330 1.6 1.6 0.00 0.00 0.00 49 1011.0
20260505014008 21 346 0.0 1.6 0.00 0.00 0.00 48 1011.0
20260505013510 21 346 0.0 1.6 0.00 0.00 0.00 47 1010.9
20260505013026 21 346 0.0 3.2 0.00 0.00 0.00 47 1010.9
20260505012510 21 338 1.6 3.2 0.00 0.00 0.00 47 1011.0
20260505012011 21 15 0.0 3.2 0.00 0.00 0.00 47 1011.0
20260505011530 21 9 0.0 4.8 0.00 0.00 0.00 45 1011.1
20260505011009 21 5 1.6 4.8 0.00 0.00 0.00 45 1011.1
20260505010509 22 279 0.0 3.2 0.00 0.00 0.00 45 1011.1
20260505010022 22 279 0.0 3.2 0.00 0.00 0.00 44 1011.1
20260505005503 22 278 0.0 3.2 0.00 0.00 0.00 42 1011.1
20260505005003 22 26 0.0 3.2 0.00 0.00 0.00 41 1011.1
20260505004509 22 299 0.0 3.2 0.00 0.00 0.00 41 1011.2
20260505004006 22 299 0.0 3.2 0.00 0.00 0.00 40 1011.2
20260505003506 22 299 0.0 1.6 0.00 0.00 0.00 41 1011.2
20260505003018 22 299 0.0 3.2 0.00 0.00 0.00 39 1011.2
20260505002509 23 299 0.0 3.2 0.00 0.00 0.00 39 1011.1
20260505002009 23 302 0.0 3.2 0.00 0.00 0.00 39 1011.1
20260505001520 22 243 1.6 4.8 0.00 0.00 0.00 38 1011.2
20260505001008 23 283 1.6 4.8 0.00 0.00 0.00 37 1011.2
20260505000510 23 278 1.6 3.2 0.00 0.00 0.00 37 1011.2
20260505000029 23 256 1.6 3.2 0.00 0.00 0.00 37 1011.3
20260504235509 23 289 0.0 3.2 0.00 0.00 0.00 38 1011.4
20260504235012 23 335 0.0 3.2 0.00 0.00 0.00 39 1011.5
20260504234508 23 352 0.0 3.2 0.00 0.00 0.00 38 1011.5
20260504234007 23 5 0.0 3.2 0.00 0.00 0.00 37 1011.5
20260504233505 23 190 0.0 3.2 0.00 0.00 0.00 37 1011.6
20260504233017 23 252 0.0 4.8 0.00 0.00 0.00 41 1011.5
20260504232512 23 303 0.0 4.8 0.00 0.00 0.00 37 1011.5
20260504232007 23 329 1.6 3.2 0.00 0.00 0.00 41 1011.4
20260504231519 23 238 0.0 3.2 0.00 0.00 0.00 41 1011.4
20260504231009 23 201 0.0 3.2 0.00 0.00 0.00 40 1011.4
20260504230509 23 247 0.0 4.8 0.00 0.00 0.00 43 1011.3
20260504230020 23 254 1.6 4.8 0.00 0.00 0.00 42 1011.4
20260504225507 23 298 1.6 4.8 0.00 0.00 0.00 39 1011.5
20260504225011 23 270 1.6 4.8 0.00 0.00 0.00 38 1011.5
20260504224526 23 292 1.6 6.4 0.00 0.00 0.00 40 1011.6
20260504224010 22 325 0.0 6.4 0.00 0.00 0.00 39 1011.6
20260504223504 22 286 3.2 6.4 0.00 0.00 0.00 38 1011.7
20260504223014 22 156 1.6 4.8 0.00 0.00 0.00 39 1011.7
20260504222512 22 311 1.6 4.8 0.00 0.00 0.00 41 1011.8
20260504222009 22 238 1.6 4.8 0.00 0.00 0.00 38 1011.7
20260504221521 22 262 1.6 4.8 0.00 0.00 0.00 41 1011.8
20260504221008 22 256 1.6 4.8 0.00 0.00 0.00 39 1011.9
20260504220508 22 281 1.6 4.8 0.00 0.00 0.00 39 1011.9
20260504220020 22 256 1.6 4.8 0.00 0.00 0.00 42 1011.9
20260504215510 22 240 1.6 4.8 0.00 0.00 0.00 40 1012.0
20260504215005 22 296 1.6 4.8 0.00 0.00 0.00 42 1012.0
20260504214505 22 234 1.6 9.7 0.00 0.00 0.00 41 1012.0
20260504214005 22 246 1.6 9.7 0.00 0.00 0.00 40 1012.0
20260504213506 23 305 1.6 6.4 0.00 0.00 0.00 42 1012.1
20260504213020 23 302 1.6 3.2 0.00 0.00 0.00 43 1012.1
20260504212504 23 320 1.6 4.8 0.00 0.00 0.00 43 1012.0
20260504212003 22 241 1.6 4.8 0.00 0.00 0.00 42 1012.1
20260504211529 22 250 1.6 4.8 0.00 0.00 0.00 42 1012.1
20260504211007 22 253 3.2 4.8 0.00 0.00 0.00 42 1012.1
20260504210508 22 289 1.6 4.8 0.00 0.00 0.00 41 1012.1
20260504210020 22 292 3.2 4.8 0.00 0.00 0.00 42 1012.3
20260504205508 21 288 1.6 6.4 0.00 0.00 0.00 42 1012.2
20260504205007 22 255 1.6 9.7 0.00 0.00 0.00 44 1012.3
20260504204524 22 281 1.6 9.7 0.00 0.00 0.00 46 1012.4
20260504204004 22 269 4.8 6.4 0.00 0.00 0.00 44 1012.4
20260504203506 22 273 3.2 6.4 0.00 0.00 0.00 44 1012.4
20260504203008 22 255 1.6 4.8 0.00 0.00 0.00 44 1012.3
20260504202506 22 240 0.0 3.2 0.00 0.00 0.00 49 1012.3
20260504202006 22 219 1.6 4.8 0.00 0.00 0.00 45 1012.2
20260504201511 22 253 3.2 4.8 0.00 0.00 0.00 48 1012.3
20260504201006 21 271 3.2 4.8 0.00 0.00 0.00 46 1012.3
20260504200507 21 237 1.6 4.8 0.00 0.00 0.00 47 1012.4
20260504200021 21 298 3.2 4.8 0.00 0.00 0.00 45 1012.5
20260504195509 21 269 1.6 4.8 0.00 0.00 0.00 45 1012.5
20260504195007 21 217 1.6 4.8 0.00 0.00 0.00 45 1012.5
20260504194524 22 274 3.2 4.8 0.00 0.00 0.00 44 1012.5
20260504194010 22 290 1.6 4.8 0.00 0.00 0.00 43 1012.5
20260504193509 22 218 0.0 4.8 0.00 0.00 0.00 45 1012.5
20260504193007 21 307 0.0 4.8 0.00 0.00 0.00 46 1012.4
20260504192507 21 321 3.2 4.8 0.00 0.00 0.00 45 1012.6
20260504192006 21 273 3.2 4.8 0.00 0.00 0.00 46 1012.6
20260504191512 21 293 3.2 4.8 0.00 0.00 0.00 45 1012.7
20260504191007 21 315 1.6 4.8 0.00 0.00 0.00 46 1012.6
20260504190507 21 240 0.0 4.8 0.00 0.00 0.00 48 1012.5
20260504190018 21 313 1.6 9.7 0.00 0.00 0.00 48 1012.6
20260504185507 21 296 3.2 9.7 0.00 0.00 0.00 48 1012.6
20260504185007 21 123 3.2 6.4 0.00 0.00 0.00 50 1012.5
20260504184535 21 105 1.6 6.4 0.00 0.00 0.00 47 1012.6
20260504183512 21 267 0.0 6.4 0.00 0.00 0.00 52 1012.7
20260504183024 21 182 0.0 4.8 0.00 0.00 0.00 48 1012.8
20260504182510 21 290 1.6 4.8 0.00 0.00 0.00 48 1012.8
20260504182006 21 168 0.0 4.8 0.00 0.00 0.00 49 1012.8
20260504181510 20 263 1.6 6.4 0.00 0.00 0.00 49 1012.8
20260504181006 20 300 3.2 6.4 0.00 0.00 0.00 46 1012.8
20260504180507 20 260 1.6 4.8 0.00 0.00 0.00 47 1012.7
20260504180016 20 234 3.2 4.8 0.00 0.00 0.00 48 1012.7
20260504175507 20 311 1.6 6.4 0.00 0.00 0.00 48 1012.8
20260504175009 20 288 1.6 8.0 0.00 0.00 0.00 49 1012.8
20260504174520 20 166 1.6 8.0 0.00 0.00 0.00 49 1012.7
20260504174011 20 274 1.6 3.2 0.00 0.00 0.00 51 1012.6
20260504173022 20 272 3.2 4.8 0.00 0.00 0.00 52 1012.5
20260504172508 19 271 1.6 3.2 0.00 0.00 0.00 48 1012.5
20260504172008 19 159 1.6 4.8 0.00 0.00 0.00 52 1012.5
20260504171508 18 268 0.0 4.8 0.00 0.00 0.00 50 1012.5
20260504171006 18 189 3.2 4.8 0.00 0.00 0.00 51 1012.5
20260504170506 18 195 1.6 3.2 0.00 0.00 0.00 51 1012.5
20260504151009 16 157 1.6 3.2 0.00 0.00 0.00 54 1011.5
20260504150514 16 153 1.6 4.8 0.00 0.00 0.00 53 1011.5
20260504141013 15 82 0.0 0.0 0.00 0.00 0.00 55 1011.1
20260504140514 15 82 0.0 0.0 0.00 0.00 0.00 55 1011.1
20260504130505 16 82 0.0 0.0 0.00 0.00 0.00 48 1010.7
20260504110508 17 82 0.0 0.0 0.00 0.00 0.00 40 1010.7
20260504100506 17 36 1.6 1.6 0.00 0.00 0.00 45 1010.5
20260504082002 17 49 0.0 3.2 0.00 0.00 0.00 40 1010.4
20260504081513 18 34 0.0 3.2 0.00 0.00 0.00 43 1010.5
20260504081004 17 40 1.6 3.2 0.00 0.00 0.00 43 1010.6
20260504080509 17 40 1.6 3.2 0.00 0.00 0.00 44 1010.6
20260504050509 19 76 4.8 12.9 0.00 0.00 0.00 53 1010.9
20260504045505 19 53 6.4 9.7 0.00 0.00 0.00 53 1010.9
20260504045004 19 55 4.8 9.7 0.00 0.00 0.00 54 1011.0
20260504044516 19 55 4.8 8.0 0.00 0.00 0.00 54 1010.9
20260504044009 20 52 4.8 9.7 0.00 0.00 0.00 54 1011.0
20260504043509 20 45 6.4 9.7 0.00 0.00 0.00 53 1011.0
20260504043020 20 59 6.4 9.7 0.00 0.00 0.00 53 1011.0
20260504042508 20 55 4.8 8.0 0.00 0.00 0.00 53 1010.9
20260504042008 20 43 4.8 8.0 0.00 0.00 0.00 53 1010.8
20260504041532 20 35 4.8 8.0 0.00 0.00 0.00 52 1010.9
20260504041012 20 64 4.8 8.0 0.00 0.00 0.00 53 1011.0
20260504040504 20 53 4.8 8.0 0.00 0.00 0.00 52 1010.9
20260504040004 20 39 4.8 6.4 0.00 0.00 0.00 53 1010.8